Location: Saint Louis
(38.6272°N, 90.1978°W)
Time: 00:33:44
(UTC-05:00)

HST - Visible Passes

Search period start: 25 October 2014 00:00
Search period end: 03 November 2014 23:00
Orbit: 546 x 550 km, 28.5° (Epoch: 24 October)

Date Brightness Start Highest point End Pass type
(mag) Time Alt. Az. Time Alt. Az. Time Alt. Az.
25 Oct 3.0 19:48:44 10° SSW 19:50:43 14° SSE 19:50:43 14° SSE visible
26 Oct 2.8 19:40:55 10° SSW 19:43:26 16° SSE 19:43:54 15° SSE visible
27 Oct 2.7 19:33:14 10° SSW 19:36:02 17° S 19:37:03 16° SSE visible
28 Oct 2.7 19:25:39 10° SW 19:28:38 19° S 19:30:11 16° SE visible
29 Oct 2.7 19:18:09 10° SW 19:21:13 20° S 19:23:18 14° SE visible
30 Oct 2.7 19:10:42 10° SW 19:13:48 20° S 19:16:25 12° SE visible
31 Oct 2.8 19:03:17 10° SW 19:06:23 20° S 19:09:29 10° SE visible
31 Oct 3.8 20:45:02 10° SW 20:45:07 10° SW 20:45:07 10° SW visible
01 Nov 2.9 18:55:56 10° SW 18:58:57 19° S 19:01:59 10° SE visible
01 Nov 3.8 20:38:18 10° SW 20:38:18 10° SW 20:38:18 10° SW visible
02 Nov 3.1 17:48:37 10° SW 17:51:31 18° S 17:54:24 10° SE visible
03 Nov 3.2 17:41:23 10° SW 17:44:03 17° S 17:46:44 10° SSE visible
